{"data":{"norad_id":45586,"epoch":"2026-05-25T00:52:07.557312Z","epoch_age_seconds":68365,"freshness":"FRESH","line1":"1 45586U 20025BH  26145.03619858  .00051455  00000+0  48045-3 0  9998","line2":"2 45586  53.0400  16.6664 0004434  95.5911 264.5609 15.66803245338091","mean_motion":15.66803245,"eccentricity":0.0004434,"inclination_deg":53.04,"raan_deg":16.6664,"arg_perigee_deg":95.5911,"mean_anomaly_deg":264.5609,"bstar":0.00048045,"rev_number":33809,"period_min":91.906881390203,"perigee_km":365.0663649908,"apogee_km":371.04889038663,"semimajor_km":6746.1946276887,"source":"CELESTRAK","updated_at":"2026-05-25T13:38:16.425554Z"}}